Location: Bacharowice
(49.9333°N, 19.5833°E)
Time: 16:16:43
(UTC+00:00)

Cosmos 2344 - Visible Passes

Search period start: 25 September 2021 00:00
Search period end: 05 October 2021 00:00
Orbit: 1236 x 3006 km, 63.3° (Epoch: 24 September)

Date Brightness Start Highest point End Pass type
(mag) Time Alt. Az. Time Alt. Az. Time Alt. Az.
25 Sep 4.7 16:57:01 10° W 17:04:02 43° NNW 17:12:09 10° NE visible
25 Sep 4.9 19:13:48 10° NW 19:21:00 35° N 19:27:47 16° ENE visible
25 Sep 4.2 21:28:44 10° NW 21:37:22 67° NE 21:37:45 66° NE visible
25 Sep 5.1 23:43:10 10° NW 23:47:42 32° WNW 23:47:42 32° WNW visible
26 Sep 4.7 16:46:40 10° W 16:53:41 43° NNW 17:01:48 10° NE visible
26 Sep 4.9 19:03:26 10° NW 19:10:38 35° N 19:17:22 17° ENE visible
26 Sep 4.2 21:18:23 10° NW 21:27:00 67° NE 21:27:20 66° NE visible
26 Sep 5.1 23:32:48 10° NW 23:37:18 32° WNW 23:37:18 32° WNW visible
27 Sep 4.9 18:53:06 10° NW 19:00:18 35° N 19:07:00 17° ENE visible
27 Sep 4.2 21:08:01 10° NW 21:16:39 67° NE 21:16:58 67° NE visible
27 Sep 5.2 23:22:27 10° NW 23:26:56 31° WNW 23:26:56 31° WNW visible
28 Sep 4.9 18:42:44 10° NW 18:49:56 35° N 18:56:39 17° ENE visible
28 Sep 4.2 20:57:40 10° NW 21:06:17 67° NE 21:06:38 67° NE visible
28 Sep 5.2 23:12:05 10° NW 23:16:36 32° WNW 23:16:36 32° WNW visible
29 Sep 4.9 18:32:23 10° NW 18:39:35 35° N 18:46:21 16° ENE visible
29 Sep 4.2 20:47:18 10° NW 20:55:55 67° NE 20:56:20 67° NE visible
29 Sep 5.2 23:01:44 10° NW 23:06:18 32° WNW 23:06:18 32° WNW visible
30 Sep 4.9 18:22:01 10° NW 18:29:14 35° N 18:36:05 16° ENE visible
30 Sep 4.2 20:36:57 10° NW 20:45:34 67° NE 20:46:03 66° NE visible
30 Sep 5.2 22:51:23 10° NW 22:56:02 32° WNW 22:56:02 32° WNW visible
01 Oct 4.9 18:11:40 10° NW 18:18:52 35° N 18:25:51 16° ENE visible
01 Oct 4.2 20:26:35 10° NW 20:35:13 67° NE 20:35:50 66° ENE visible
01 Oct 5.2 22:41:01 10° NW 22:45:48 33° WNW 22:45:48 33° WNW visible
02 Oct 4.9 18:01:19 10° NW 18:08:30 35° N 18:15:38 15° ENE visible
02 Oct 4.2 20:16:14 10° NW 20:24:52 67° NE 20:25:37 65° ENE visible
02 Oct 5.2 22:30:40 10° NW 22:35:35 34° WNW 22:35:35 34° WNW visible
03 Oct 4.8 17:50:57 10° NW 17:58:10 35° N 18:05:27 15° ENE visible
03 Oct 4.2 20:05:52 10° NW 20:14:30 67° NE 20:15:26 65° ENE visible
03 Oct 5.1 22:20:18 10° NW 22:25:25 35° WNW 22:25:25 35° WNW visible
04 Oct 4.8 17:40:36 10° NW 17:47:48 35° N 17:55:17 14° ENE visible
04 Oct 4.2 19:55:31 10° NW 20:04:09 67° NE 20:05:16 64° ENE visible
04 Oct 5.1 22:09:57 10° NW 22:15:15 36° WNW 22:15:15 36° WNW visible
